Terminal Aerodrome Forecast
Issued by NWS Columbia, SC

Home | Current Version | Previous Version | Text Only | Print | Product List | Glossary On
Versions: 1 2 3 4 5 6 7 8 9 10 11 12 13 14 15 16 17 18 19 20 21 22 23 24 25 26 27 28 29 30 31 32 33 34 35 36 37 38 39 40 41 42 43 44 45 46 47 48 49
000
FTUS42 KCAE 061521 AAD
TAFAGS
TAF AMD
KAGS 061521Z 0615/0712 VRB05KT P6SM BKN019 OVC030
     FM061600 24005KT P6SM SCT025 BKN035
     FM062000 23008KT P6SM VCSH BKN045 BKN120
     FM070100 22003KT P6SM SCT060 SCT250=

USA.gov is the U.S. government's official web portal to all federal, state and local government web resources and services.